Location: Grange Verzio
(44.5000°N, 6.9833°E)
Time: 18:14:24
(UTC+00:00)

Cosmos 2219 Rocket - Pass Details

Date: 04 October 2023
Orbit: 826 x 848 km, 71.0° (Epoch: 08 December)

Event Time Altitude Azimuth Distance (km) Brightness Sun altitude
Rises 17:42:12 0° 226° (SW) 3,353 6.1 -6.9°
Reaches altitude 10° 17:44:46 10° 233° (SW) 2,425 5.5 -7.4°
Maximum altitude 17:49:59 41° 303° (WNW) 1,189 3.6 -8.3°
Drops below altitude 10° 17:55:17 10° 13° (NNE) 2,449 4.5 -9.3°
Sets 17:57:53 0° 21° (NNE) 3,390 5.2 -9.7°
